539  
SXUS52 KJAX 241913  
OSOJAX  
OTHER SURFACE OBSERVATIONS  
NATIONAL WEATHER SERVICE JACKSONVILLE FL  
300 PM EDT MON SEP 24 2018  
 
FLZ020>025-030>033-035>038-040-242000-   
..FLORIDA
 
 
 
CITY SKY/WX TMP DP RH WIND PRES REMARKS  
CECIL FIELD MOSUNNY 86 75 70 NE6 30.04F  
HERLONG FIELD NOT AVBL  
FERNANDINA BCH NOT AVBL  
LAKE CITY TSTM 79 73 83 E9 30.04F  
JUNIPER SPGS NOT AVBL  
BUNNELL NOT AVBL  
KEYSTONE HGTS MOCLDY 86 77 74 SE12 30.04F  

 
 
GAZ132>136-149>154-162>166-242000-   
..GEORGIA
 
 
 
CITY SKY/WX TMP DP RH WIND PRES REMARKS  
JESUP MOCLDY 90 72 55 E7 30.07F  
HOMERVILLE FAIR 91 72 52 E8 30.05F  
SWAINSBORO CLOUDY 81 77 89 W3 30.11F  
CORDELE NOT AVBL  
EASTMAN MOCLDY 89 70 52 SE9 30.10F  

 
 
PLEASE NOTE: THESE OBSERVATIONS ARE NOT QUALITY CONTROLLED AND MAY  
NOT BE AVAILABLE AT ALL TIMES.  

 
 
 
CLICK HERE TO GO TO PREVIOUS BULLETINS.

The Nexlab FL Page
The Nexlab GA Page Main Text Page